sat.trackr.live / text

‹ back to catalog

VNREDSAT 1

NORAD 39160 · 2013-021B

PAYLOAD ACTIVE UNKNOWN

§ Identity

Operator
Country
VTNM
Launch date
2013-05-07
Launch site
FRGUI
Launch vehicle
Mass (kg)
RCS (m²)
0.74

Purposes: earth_obs

External: N2YO · Heavens-Above · Gunter

§ Orbital elements

Epoch: 2026-09-20T04:12:51.713856Z

Period
98.31 min
Inclination
97.8987°
Eccentricity
0.0001234
Mean motion
14.64747163 rev/d
Perigee alt
677.0 km
Apogee alt
678.8 km
Semi-major
7,056.0 km
B*
4.1023e-5
RAAN
312.8889°
Arg perigee
83.8211°
Mean anomaly
276.3133°
Rev number
71,419

§ Raw data

VNREDSAT 11 39160U 13021B   26263.17559854  .00000173  00000+0  41023-4 0  99932 39160  97.8987 312.8889 0001234  83.8211 276.3133 14.64747163714191

JSON: /api/v1/satellites/39160 · /tle

For live sub-satellite position, see the globe view (requires WebGL).

§ Visibility from observer

Set your observer location to see the next 7 days of passes ≥ 10°. The values pass through the URL so the page stays shareable.

No JS? Fill the form by hand. The geolocation button needs JavaScript.